K4HOG Weather Reports


time (UTC)temp
C
wind
direction
speed
KPH
gust
KPH
rain 1hr
cm
rain 24hr
cm
rain mn
cm
humidity
%
barometer
mb
20260510193757 32 240 3.2 4.8 0.00 0.00 0.00 54 1014.9
20260510193252 33 261 3.2 4.8 0.00 0.00 0.00 53 1015.2
20260510192747 32 175 1.6 1.6 0.00 0.00 0.00 54 1015.0
20260510192243 32 198 6.4 6.4 0.00 0.00 0.00 52 1015.3
20260510191740 32 20 1.6 1.6 0.00 0.00 0.00 55 1015.3
20260510191236 32 139 1.6 3.2 0.00 0.00 0.00 55 1015.3
20260510190734 32 238 3.2 3.2 0.00 0.00 0.00 54 1015.0
20260510190230 33 182 3.2 4.8 0.00 0.00 0.00 52 1015.0
20260510185727 33 317 3.2 3.2 0.00 0.00 0.00 51 1014.9
20260510185225 32 301 6.4 9.7 0.00 0.00 0.00 53 1015.1
20260510184721 32 53 4.8 6.4 0.00 0.00 0.00 51 1015.4
20260510184218 33 321 6.4 9.7 0.00 0.00 0.00 51 1015.0
20260510183714 33 211 3.2 4.8 0.00 0.00 0.00 50 1015.0
20260510183208 33 89 4.8 6.4 0.00 0.00 0.00 49 1015.0
20260510182705 34 171 4.8 6.4 0.00 0.00 0.00 48 1015.3
20260510182200 34 243 1.6 3.2 0.00 0.00 0.00 49 1015.2
20260510181658 34 226 1.6 3.2 0.00 0.00 0.00 48 1015.3
20260510181154 34 206 6.4 9.7 0.00 0.00 0.00 51 1015.2
20260510180650 34 266 4.8 6.4 0.00 0.00 0.00 49 1015.1
20260510180148 34 341 4.8 4.8 0.00 0.00 0.00 51 1015.2
20260510175644 34 121 1.6 3.2 0.00 0.00 0.00 49 1015.0
20260510175140 34 181 1.6 1.6 0.00 0.00 0.00 49 1015.2
20260510174638 34 82 8.0 12.9 0.00 0.00 0.00 48 1014.9
20260510174135 34 251 3.2 3.2 0.00 0.00 0.00 48 1015.2
20260510173631 33 309 4.8 9.7 0.00 0.00 0.00 49 1015.3
20260510173127 34 151 3.2 6.4 0.00 0.00 0.00 48 1015.2
20260510172622 33 56 3.2 6.4 0.00 0.00 0.00 49 1015.1
20260510172119 33 239 4.8 4.8 0.00 0.00 0.00 51 1015.4
20260510171616 33 49 1.6 1.6 0.00 0.00 0.00 51 1015.4
20260510171114 33 34 3.2 9.7 0.00 0.00 0.00 51 1015.4
20260510170610 32 306 3.2 6.4 0.00 0.00 0.00 54 1015.5
20260510170106 31 143 1.6 3.2 0.00 0.00 0.00 57 1015.8
20260510165602 32 201 0.0 0.0 0.00 0.00 0.00 58 1016.0
20260510165058 32 146 3.2 4.8 0.00 0.00 0.00 56 1015.9
20260510164556 32 155 6.4 9.7 0.00 0.00 0.00 56 1015.8
20260510164052 32 202 3.2 3.2 0.00 0.00 0.00 60 1016.1
20260510163547 31 332 1.6 3.2 0.00 0.00 0.00 60 1016.1
20260510163044 31 216 1.6 3.2 0.00 0.00 0.00 62 1016.2
20260510162539 30 254 0.0 0.0 0.00 0.00 0.00 64 1016.2
20260510162036 30 225 1.6 1.6 0.00 0.00 0.00 66 1016.2
20260510161532 31 249 1.6 3.2 0.00 0.00 0.00 63 1016.4
20260510161029 31 255 1.6 3.2 0.00 0.00 0.00 61 1016.3
20260510160526 32 263 3.2 3.2 0.00 0.00 0.00 60 1016.3
20260510160025 31 346 3.2 4.8 0.00 0.00 0.00 61 1016.3
20260510155522 31 216 1.6 1.6 0.00 0.00 0.00 62 1016.2
20260510155018 31 230 3.2 3.2 0.00 0.00 0.00 64 1016.2
20260510154514 31 265 1.6 1.6 0.00 0.00 0.00 62 1016.3
20260510154015 31 21 3.2 3.2 0.00 0.00 0.00 64 1016.3
20260510153510 30 209 3.2 3.2 0.00 0.00 0.00 63 1016.4
20260510153007 30 215 3.2 4.8 0.00 0.00 0.00 67 1016.3
20260510152504 30 219 3.2 3.2 0.00 0.00 0.00 67 1016.4
20260510152000 30 156 4.8 4.8 0.00 0.00 0.00 67 1016.3
20260510151457 29 175 1.6 3.2 0.00 0.00 0.00 70 1016.3
20260510150954 29 143 3.2 4.8 0.00 0.00 0.00 71 1016.3
20260510150450 28 139 3.2 3.2 0.00 0.00 0.00 72 1016.2
20260510145946 28 181 6.4 6.4 0.00 0.00 0.00 71 1016.3
20260510145442 28 188 4.8 6.4 0.00 0.00 0.00 73 1016.4
20260510144939 28 239 3.2 4.8 0.00 0.00 0.00 73 1016.4
20260510144436 28 214 4.8 9.7 0.00 0.00 0.00 73 1016.3
20260510143931 28 259 3.2 6.4 0.00 0.00 0.00 73 1016.4
20260510143427 28 152 3.2 3.2 0.00 0.00 0.00 73 1016.4
20260510142924 28 160 6.4 6.4 0.00 0.00 0.00 73 1016.3
20260510142421 28 182 3.2 4.8 0.00 0.00 0.00 73 1016.2
20260510141917 28 130 6.4 9.7 0.00 0.00 0.00 73 1016.1
20260510141414 28 141 0.0 1.6 0.00 0.00 0.00 74 1016.1
20260510140912 27 199 3.2 3.2 0.00 0.00 0.00 74 1016.2
20260510140408 27 181 4.8 4.8 0.00 0.00 0.00 76 1016.2
20260510135907 27 164 3.2 3.2 0.00 0.00 0.00 76 1016.1
20260510135403 27 163 4.8 4.8 0.00 0.00 0.00 76 1016.1
20260510134900 27 123 3.2 3.2 0.00 0.00 0.00 76 1016.3
20260510134357 27 178 1.6 1.6 0.00 0.00 0.00 77 1015.9
20260510133853 26 126 3.2 3.2 0.00 0.00 0.00 78 1016.0
20260510133350 26 169 3.2 4.8 0.00 0.00 0.00 79 1015.9
20260510132845 26 185 1.6 1.6 0.00 0.00 0.00 79 1015.9
20260510132343 26 199 1.6 1.6 0.00 0.00 0.00 81 1016.0
20260510131840 26 199 0.0 1.6 0.00 0.00 0.00 82 1016.0
20260510131338 26 191 3.2 3.2 0.00 0.00 0.00 83 1015.7
20260510130834 25 192 3.2 3.2 0.00 0.00 0.00 85 1015.8
20260510130331 25 209 1.6 1.6 0.00 0.00 0.00 86 1015.8
20260510125827 25 224 1.6 1.6 0.00 0.00 0.00 86 1016.0
20260510125324 25 244 0.0 0.0 0.00 0.00 0.00 87 1015.8
20260510124821 25 191 0.0 1.6 0.00 0.00 0.00 87 1015.9
20260510124318 25 206 0.0 1.6 0.00 0.00 0.00 87 1015.8
20260510123813 25 227 0.0 1.6 0.00 0.00 0.00 87 1015.8
20260510123309 25 225 0.0 0.0 0.00 0.00 0.00 88 1015.8
20260510122805 24 204 0.0 0.0 0.00 0.00 0.00 90 1015.6
20260510122301 24 194 0.0 1.6 0.00 0.00 0.00 91 1015.6
20260510121758 23 174 0.0 1.6 0.00 0.00 0.00 93 1015.6
20260510121256 23 174 1.6 1.6 0.00 0.00 0.00 96 1015.6
20260510120753 22 196 1.6 1.6 0.00 0.00 0.00 97 1015.3
20260510120249 22 230 0.0 0.0 0.00 0.00 0.00 97 1015.3
20260510115745 22 196 1.6 3.2 0.00 0.00 0.00 97 1015.2
20260510115243 22 232 0.0 0.0 0.00 0.00 0.00 98 1015.2
20260510114738 22 239 0.0 0.0 0.00 0.00 0.00 98 1015.1
20260510114236 21 237 0.0 0.0 0.00 0.00 0.00 98 1015.3
20260510113731 21 229 0.0 0.0 0.00 0.00 0.00 98 1014.9
20260510113228 21 227 0.0 0.0 0.00 0.00 0.00 98 1014.7
20260510112724 21 227 0.0 0.0 0.00 0.00 0.00 98 1014.7
20260510112221 21 227 0.0 0.0 0.00 0.00 0.00 98 1014.6
20260510111717 21 227 0.0 0.0 0.00 0.00 0.00 98 1014.3
20260510111215 21 227 0.0 0.0 0.00 0.00 0.00 97 1014.6
20260510110714 21 226 0.0 0.0 0.00 0.00 0.00 98 1014.3
20260510110212 21 210 0.0 0.0 0.00 0.00 0.00 97 1014.2
20260510105712 21 210 0.0 0.0 0.00 0.00 0.00 97 1014.2
20260510105206 21 210 0.0 0.0 0.00 0.00 0.00 97 1014.1
20260510104703 21 210 0.0 0.0 0.00 0.00 0.00 97 1014.0
20260510104200 21 210 0.0 0.0 0.00 0.00 0.00 97 1013.8
20260510103657 21 210 0.0 0.0 0.00 0.00 0.00 97 1013.9
20260510103154 21 210 0.0 0.0 0.00 0.00 0.00 97 1013.9
20260510102654 21 210 0.0 0.0 0.00 0.00 0.00 97 1014.0
20260510102150 21 195 0.0 0.0 0.00 0.00 0.00 97 1013.8
20260510101648 21 197 0.0 0.0 0.00 0.00 0.00 97 1013.7
20260510101146 21 203 0.0 0.0 0.00 0.00 0.00 97 1013.6
20260510100641 21 208 0.0 0.0 0.00 0.00 0.00 97 1013.4
20260510100139 21 205 0.0 0.0 0.00 0.00 0.00 97 1013.4
20260510095635 21 204 0.0 0.0 0.00 0.00 0.00 97 1013.4
20260510095130 21 211 0.0 0.0 0.00 0.00 0.00 97 1013.5
20260510094629 21 194 0.0 0.0 0.00 0.00 0.00 97 1013.2
20260510094125 21 204 0.0 0.0 0.00 0.00 0.00 97 1013.6
20260510093621 21 208 0.0 0.0 0.00 0.00 0.00 97 1013.3
20260510093118 21 228 0.0 0.0 0.00 0.00 0.00 97 1013.4
20260510092615 21 226 0.0 0.0 0.00 0.00 0.00 97 1013.4
20260510092115 21 213 0.0 0.0 0.00 0.00 0.00 97 1013.3
20260510091611 21 227 0.0 0.0 0.00 0.00 0.00 97 1013.2
20260510091108 21 214 0.0 0.0 0.00 0.00 0.00 97 1013.2
20260510090605 21 214 0.0 0.0 0.00 0.00 0.00 97 1013.1
20260510090100 21 208 0.0 0.0 0.00 0.00 0.00 97 1013.1
20260510085555 21 209 0.0 0.0 0.00 0.00 0.00 97 1013.1
20260510085051 21 213 0.0 0.0 0.00 0.00 0.00 97 1013.2
20260510084548 21 216 0.0 0.0 0.00 0.00 0.00 97 1012.8
20260510084045 21 186 1.6 1.6 0.00 0.00 0.00 97 1012.8
20260510083542 21 191 0.0 0.0 0.00 0.00 0.00 97 1012.8
20260510083038 21 185 1.6 1.6 0.00 0.00 0.00 97 1012.8
20260510082535 21 216 0.0 0.0 0.00 0.00 0.00 97 1012.6
20260510082030 21 207 0.0 0.0 0.00 0.00 0.00 97 1012.8
20260510081525 21 208 0.0 0.0 0.00 0.00 0.00 97 1012.7
20260510081021 21 211 0.0 0.0 0.00 0.00 0.00 97 1012.7
20260510080520 21 211 0.0 0.0 0.00 0.00 0.00 97 1012.7
20260510080017 21 202 0.0 0.0 0.00 0.00 0.00 97 1012.7
20260510075515 21 203 0.0 0.0 0.00 0.00 0.00 97 1012.9
20260510075012 21 206 0.0 0.0 0.00 0.00 0.00 97 1013.0
20260510074509 21 200 0.0 0.0 0.00 0.00 0.00 97 1012.9
20260510074004 21 201 0.0 0.0 0.00 0.00 0.00 97 1013.1
20260510073501 21 206 0.0 0.0 0.00 0.00 0.00 96 1012.8
20260510072957 21 209 0.0 0.0 0.00 0.00 0.00 96 1012.9
20260510072454 21 210 0.0 0.0 0.00 0.00 0.00 96 1013.1
20260510071949 21 210 0.0 0.0 0.00 0.00 0.00 96 1013.1
20260510071446 21 210 0.0 0.0 0.00 0.00 0.00 96 1013.1
20260510070944 21 210 0.0 0.0 0.00 0.00 0.00 96 1013.1
20260510070441 21 210 0.0 0.0 0.00 0.00 0.00 96 1013.3
20260510065937 21 210 0.0 0.0 0.00 0.00 0.00 96 1013.3
20260510065434 21 210 0.0 0.0 0.00 0.00 0.00 96 1013.4
20260510064930 21 208 0.0 0.0 0.00 0.00 0.00 96 1013.3
20260510064428 21 212 0.0 0.0 0.00 0.00 0.00 96 1013.2
20260510063924 21 229 0.0 0.0 0.00 0.00 0.00 95 1013.3
20260510063420 21 227 0.0 0.0 0.00 0.00 0.00 95 1013.3
20260510062918 21 227 0.0 0.0 0.00 0.00 0.00 95 1013.4
20260510062413 21 228 0.0 0.0 0.00 0.00 0.00 95 1013.5
20260510061909 21 228 0.0 0.0 0.00 0.00 0.00 95 1013.7
20260510061406 21 228 0.0 0.0 0.00 0.00 0.00 95 1013.9
20260510060902 21 228 0.0 0.0 0.00 0.00 0.00 95 1013.8
20260510060359 21 228 0.0 0.0 0.00 0.00 0.00 95 1013.9
20260510055855 21 228 0.0 0.0 0.00 0.00 0.00 95 1014.1
20260510055355 21 228 0.0 0.0 0.00 0.00 0.00 94 1014.1
20260510054854 21 228 0.0 0.0 0.00 0.00 0.00 94 1014.1
20260510054350 21 228 0.0 0.0 0.00 0.00 0.00 94 1014.3
20260510053845 21 228 0.0 0.0 0.00 0.00 0.00 94 1014.3
20260510053340 21 228 0.0 0.0 0.00 0.00 0.00 94 1014.5
20260510052837 21 228 0.0 0.0 0.00 0.00 0.00 94 1014.3
20260510052333 21 228 0.0 0.0 0.00 0.00 0.00 93 1014.4
20260510051829 21 228 0.0 0.0 0.00 0.00 0.00 93 1014.4
20260510051326 21 228 0.0 0.0 0.00 0.00 0.00 93 1014.5
20260510050823 21 228 0.0 0.0 0.00 0.00 0.00 93 1014.4
20260510050320 21 228 0.0 0.0 0.00 0.00 0.00 92 1014.5
20260510045817 21 228 0.0 0.0 0.00 0.00 0.00 92 1014.5
20260510045313 22 228 0.0 0.0 0.00 0.00 0.00 92 1014.4
20260510044811 22 228 0.0 0.0 0.00 0.00 0.00 92 1014.5
20260510044308 22 228 0.0 0.0 0.00 0.00 0.00 91 1014.7
20260510043804 22 228 0.0 0.0 0.00 0.00 0.00 91 1014.8
20260510043255 22 228 0.0 0.0 0.00 0.00 0.00 91 1014.8
20260510042752 22 229 0.0 0.0 0.00 0.00 0.00 91 1014.9
20260510042248 22 229 0.0 0.0 0.00 0.00 0.00 90 1014.8
20260510041744 22 230 0.0 0.0 0.00 0.00 0.00 90 1015.1
20260510041241 22 230 0.0 0.0 0.00 0.00 0.00 90 1015.0
20260510040739 22 229 0.0 0.0 0.00 0.00 0.00 90 1015.2
20260510040236 22 230 0.0 0.0 0.00 0.00 0.00 89 1015.0
20260510035730 22 230 0.0 0.0 0.00 0.00 0.00 89 1015.0
20260510035227 22 229 0.0 0.0 0.00 0.00 0.00 89 1014.9
20260510034722 22 230 0.0 0.0 0.00 0.00 0.00 88 1015.0
20260510034222 22 230 0.0 0.0 0.00 0.00 0.00 88 1014.9
20260510033717 23 230 0.0 0.0 0.00 0.00 0.00 87 1014.9
20260510033215 23 212 0.0 0.0 0.00 0.00 0.00 87 1014.8
20260510032711 23 211 0.0 0.0 0.00 0.00 0.00 85 1014.8
20260510032207 23 212 0.0 0.0 0.00 0.00 0.00 85 1014.8
20260510031702 23 211 0.0 0.0 0.00 0.00 0.00 84 1014.8
20260510031159 23 271 0.0 1.6 0.00 0.00 0.00 84 1014.9
20260510030658 23 262 0.0 0.0 0.00 0.00 0.00 84 1015.1
20260510030156 23 262 0.0 0.0 0.00 0.00 0.00 84 1014.9
20260510025654 23 262 0.0 0.0 0.00 0.00 0.00 84 1014.8
20260510025150 23 278 1.6 1.6 0.00 0.00 0.00 85 1014.6
20260510024648 23 299 0.0 1.6 0.00 0.00 0.00 85 1014.6
20260510024144 23 235 0.0 0.0 0.00 0.00 0.00 85 1014.6
20260510023639 23 235 0.0 0.0 0.00 0.00 0.00 84 1014.4
20260510023137 23 235 0.0 0.0 0.00 0.00 0.00 84 1014.4
20260510022631 23 235 0.0 0.0 0.00 0.00 0.00 84 1014.0
20260510022126 23 234 0.0 0.0 0.00 0.00 0.00 84 1014.2
20260510021622 23 234 0.0 0.0 0.00 0.00 0.00 84 1014.3
20260510021120 23 233 0.0 0.0 0.00 0.00 0.00 84 1014.1
20260510020613 23 233 0.0 0.0 0.00 0.00 0.00 84 1014.4
20260510020109 23 234 0.0 0.0 0.00 0.00 0.00 84 1014.4
20260510015605 23 234 0.0 0.0 0.00 0.00 0.00 84 1014.3
20260510015102 23 234 0.0 0.0 0.00 0.00 0.00 83 1014.1
20260510014557 23 234 0.0 0.0 0.00 0.00 0.00 83 1014.0
20260510014055 23 234 0.0 0.0 0.00 0.00 0.00 83 1014.0
20260510013550 23 234 0.0 0.0 0.00 0.00 0.00 82 1013.9
20260510013046 23 234 0.0 0.0 0.00 0.00 0.00 82 1014.0
20260510012545 23 234 0.0 0.0 0.00 0.00 0.00 81 1013.9
20260510012042 23 233 0.0 0.0 0.00 0.00 0.00 81 1013.7
20260510011541 24 234 0.0 0.0 0.00 0.00 0.00 80 1013.8
20260510011037 24 235 0.0 0.0 0.00 0.00 0.00 80 1013.8
20260510010534 24 189 0.0 0.0 0.00 0.00 0.00 80 1013.7
20260510010031 24 211 0.0 0.0 0.00 0.00 0.00 79 1013.6
20260510005527 24 95 1.6 1.6 0.00 0.00 0.00 79 1013.6
20260510005025 24 193 0.0 0.0 0.00 0.00 0.00 79 1013.6
20260510004522 24 253 0.0 1.6 0.00 0.00 0.00 79 1013.7
20260510004021 24 257 0.0 0.0 0.00 0.00 0.00 79 1013.6
20260510003517 24 259 0.0 0.0 0.00 0.00 0.00 78 1013.3
20260510003012 24 288 1.6 1.6 0.00 0.00 0.00 78 1013.3
20260510002508 25 262 0.0 0.0 0.00 0.00 0.00 78 1013.2
20260510002005 25 266 0.0 0.0 0.00 0.00 0.00 77 1013.1
20260510001503 25 269 0.0 0.0 0.00 0.00 0.00 77 1013.1
20260510001000 25 294 1.6 1.6 0.00 0.00 0.00 77 1012.9
20260510000456 25 322 1.6 3.2 0.00 0.00 0.00 76 1012.9
20260509235952 25 298 1.6 3.2 0.00 0.00 0.00 76 1012.8
20260509235449 26 288 4.8 4.8 0.00 0.00 0.00 75 1012.9
20260509234945 26 335 3.2 3.2 0.00 0.00 0.00 73 1012.9
20260509234442 27 353 4.8 4.8 0.00 0.00 0.00 72 1012.9
20260509233940 27 270 1.6 1.6 0.00 0.00 0.00 70 1012.7
20260509233438 27 244 0.0 0.0 0.00 0.00 0.00 68 1012.7
20260509232933 27 319 3.2 4.8 0.00 0.00 0.00 67 1012.6
20260509232431 27 271 1.6 1.6 0.00 0.00 0.00 66 1012.5
20260509231927 27 307 1.6 1.6 0.00 0.00 0.00 65 1012.4
20260509231424 28 317 0.0 1.6 0.00 0.00 0.00 65 1012.6
20260509230922 28 236 0.0 1.6 0.00 0.00 0.00 64 1012.4
20260509230418 28 349 3.2 3.2 0.00 0.00 0.00 64 1012.6
20260509225914 28 311 4.8 4.8 0.00 0.00 0.00 63 1012.4
20260509225411 28 355 4.8 4.8 0.00 0.00 0.00 64 1012.4
20260509224907 28 277 1.6 1.6 0.00 0.00 0.00 63 1012.4
20260509224403 29 107 1.6 3.2 0.00 0.00 0.00 63 1012.3
20260509223900 29 205 3.2 3.2 0.00 0.00 0.00 60 1012.3
20260509223357 30 247 0.0 0.0 0.00 0.00 0.00 59 1012.2
20260509222854 30 216 1.6 1.6 0.00 0.00 0.00 58 1012.0
20260509222354 30 253 0.0 0.0 0.00 0.00 0.00 57 1012.0
20260509221850 30 220 0.0 0.0 0.00 0.00 0.00 56 1011.8
20260509221348 30 153 0.0 1.6 0.00 0.00 0.00 55 1012.0
20260509220843 30 300 3.2 3.2 0.00 0.00 0.00 54 1011.9
20260509220339 30 232 1.6 1.6 0.00 0.00 0.00 54 1011.8
20260509215835 31 215 0.0 0.0 0.00 0.00 0.00 54 1011.6
20260509215332 31 190 1.6 3.2 0.00 0.00 0.00 53 1011.5
20260509214829 31 162 4.8 6.4 0.00 0.00 0.00 51 1011.5
20260509214326 31 7 3.2 3.2 0.00 0.00 0.00 51 1011.4
20260509213823 32 231 1.6 3.2 0.00 0.00 0.00 51 1011.5
20260509213318 32 176 0.0 1.6 0.00 0.00 0.00 52 1011.3
20260509212816 32 207 1.6 1.6 0.00 0.00 0.00 50 1011.2
20260509212313 32 248 0.0 1.6 0.00 0.00 0.00 51 1011.0
20260509211808 32 33 3.2 3.2 0.00 0.00 0.00 50 1011.1
20260509211304 32 302 3.2 3.2 0.00 0.00 0.00 51 1011.1
20260509210801 32 267 1.6 1.6 0.00 0.00 0.00 53 1011.2
20260509210259 32 221 1.6 3.2 0.00 0.00 0.00 51 1011.2
20260509205758 32 237 1.6 3.2 0.00 0.00 0.00 53 1011.1
20260509205253 32 57 1.6 1.6 0.00 0.00 0.00 52 1011.1
20260509204750 32 197 3.2 4.8 0.00 0.00 0.00 51 1011.2
20260509204246 32 231 1.6 3.2 0.00 0.00 0.00 49 1011.1
20260509203742 33 291 1.6 1.6 0.00 0.00 0.00 49 1011.3
20260509203240 33 200 0.0 1.6 0.00 0.00 0.00 49 1011.1
20260509202737 32 300 1.6 3.2 0.00 0.00 0.00 49 1011.1
20260509202233 32 116 3.2 4.8 0.00 0.00 0.00 51 1011.2
20260509201727 32 255 3.2 3.2 0.00 0.00 0.00 50 1011.1
20260509201224 32 212 1.6 3.2 0.00 0.00 0.00 52 1011.0
20260509200720 32 80 6.4 9.7 0.00 0.00 0.00 50 1011.2
20260509200215 32 210 1.6 1.6 0.00 0.00 0.00 51 1011.3
20260509195712 31 246 3.2 4.8 0.00 0.00 0.00 52 1011.2
20260509195207 31 0 1.6 3.2 0.00 0.00 0.00 52 1011.3
20260509194706 32 75 3.2 3.2 0.00 0.00 0.00 51 1011.5